KINEIS-5D

Last updated on Thu Sep 24 2026 00:03:12 GMT+0000 (Coordinated Universal Time)

1 62082U 24219B 26266.68747949 .00000634 00000+0 10727-3 0 9994 2 62082 97.9273 63.0645 0004104 330.8081 29.2897 14.72593846 98253
UTC large
Height (km)
Speed (km/s)
/
Latitude / Longitude
Inclination (degrees)
Orbital Period (minutes)
Azimuth
Elevation
Range (km)
Doppler Factor

Next 0 passes for location: London (51.5072 / 0.1276)

No passes found over London.
KINEIS-5D